When you browse on this site, cookies collect data to enhance your experience and personalize the content and advertising you see.
Visit our Privacy Policy to learn more. By continuing to use the site, you agree to this use of cookies and data.
  • En España
  • Lista de países
  • Para 7 días
  • Temperatura del agua
  • El tiempo en el mapa
  • Informadores
  • user-avatar
    Iniciar sesión

    Tiempo cada hora Greenock

    Hoy, 13 Noviembre, Miércoles

    Tiempo Temperatura Precipitaciones Viento Presión Humedad
    00:00 +3°C° 0 mm 1 mps 737 mmHg 93%
    01:00 +2°C° 0 mm 1 mps 737 mmHg 94%
    02:00 +2°C° 0 mm 1 mps 736 mmHg 94%
    03:00 +2°C° 0 mm 1 mps 736 mmHg 94%
    04:00 +2°C° 0 mm 1 mps 736 mmHg 94%
    05:00 +1°C° 0 mm 0 mps 735 mmHg 94%
    06:00 0°C° 0 mm 0 mps 735 mmHg 94%
    07:00 +2°C° 0 mm 1 mps 735 mmHg 94%
    08:00 +2°C° 0 mm 1 mps 735 mmHg 94%
    09:00 +2°C° 0 mm 1 mps 734 mmHg 94%
    10:00 +2°C° 0 mm 2 mps 734 mmHg 92%
    11:00 +3°C° 0 mm 2 mps 734 mmHg 90%
    12:00 +3°C° 0 mm 2 mps 733 mmHg 88%
    13:00 +2°C° 0 mm 3 mps 733 mmHg 87%
    14:00 +2°C° 0 mm 3 mps 733 mmHg 87%
    15:00 +2°C° 0 mm 3 mps 732 mmHg 86%
    16:00 +2°C° 0 mm 3 mps 732 mmHg 88%
    17:00 0°C° 0 mm 4 mps 732 mmHg 89%
    18:00 0°C° 0 mm 4 mps 733 mmHg 91%
    19:00 0°C° 0 mm 4 mps 733 mmHg 92%
    20:00 -1°C° 0 mm 4 mps 734 mmHg 92%
    21:00 -1°C° 0 mm 4 mps 735 mmHg 93%
    22:00 -1°C° 0 mm 4 mps 735 mmHg 93%
    23:00 -1°C° 0 mm 4 mps 736 mmHg 92%

    Mañana, 14 Noviembre, Jueves

    Tiempo Temperatura Precipitaciones Viento Presión Humedad
    00:00 -1°C° 0 mm 3 mps 737 mmHg 91%
    01:00 -1°C° 0 mm 3 mps 737 mmHg 89%
    02:00 -1°C° 0 mm 3 mps 738 mmHg 86%
    03:00 -1°C° 0 mm 3 mps 738 mmHg 84%
    04:00 -1°C° 0 mm 3 mps 739 mmHg 84%
    05:00 -2°C° 0 mm 3 mps 740 mmHg 84%
    06:00 -2°C° 0 mm 3 mps 740 mmHg 84%
    07:00 -1°C° 0 mm 3 mps 741 mmHg 83%
    08:00 -1°C° 0 mm 3 mps 741 mmHg 82%
    09:00 -1°C° 0 mm 3 mps 742 mmHg 82%
    10:00 +1°C° 0 mm 3 mps 742 mmHg 77%
    11:00 +1°C° 0 mm 4 mps 743 mmHg 72%
    12:00 +3°C° 0 mm 4 mps 743 mmHg 66%
    13:00 +3°C° 0 mm 4 mps 743 mmHg 69%
    14:00 +3°C° 0 mm 4 mps 743 mmHg 71%
    15:00 +3°C° 0 mm 3 mps 744 mmHg 73%
    16:00 +1°C° 0 mm 4 mps 744 mmHg 76%
    17:00 0°C° 0 mm 4 mps 745 mmHg 79%
    18:00 0°C° 0 mm 4 mps 745 mmHg 82%
    19:00 0°C° 0 mm 4 mps 746 mmHg 83%
    20:00 -1°C° 0 mm 4 mps 747 mmHg 84%
    21:00 -1°C° 0 mm 4 mps 747 mmHg 85%
    22:00 -1°C° 0 mm 4 mps 748 mmHg 85%
    23:00 -1°C° 0 mm 4 mps 748 mmHg 86%

    Pasado mañana, 15 Noviembre, Viernes

    Tiempo Temperatura Precipitaciones Viento Presión Humedad
    00:00 -1°C° 0 mm 4 mps 749 mmHg 86%
    01:00 -1°C° 0 mm 4 mps 749 mmHg 86%
    02:00 -1°C° 0 mm 4 mps 749 mmHg 87%
    03:00 -1°C° 0 mm 4 mps 749 mmHg 87%
    04:00 -1°C° 0 mm 4 mps 750 mmHg 87%
    05:00 -1°C° 0 mm 4 mps 750 mmHg 87%
    06:00 -2°C° 0 mm 4 mps 750 mmHg 87%
    07:00 -1°C° 0 mm 2 mps 751 mmHg 86%
    08:00 -1°C° 0 mm 2 mps 751 mmHg 85%
    09:00 -1°C° 0 mm 2 mps 751 mmHg 83%
    10:00 +2°C° 0 mm 2 mps 751 mmHg 78%
    11:00 +3°C° 0 mm 2 mps 751 mmHg 73%
    12:00 +4°C° 0 mm 2 mps 751 mmHg 68%
    13:00 +4°C° 0 mm 2 mps 750 mmHg 71%
    14:00 +4°C° 0 mm 2 mps 750 mmHg 73%
    15:00 +3°C° 0 mm 2 mps 749 mmHg 76%
    16:00 +2°C° 0 mm 2 mps 749 mmHg 80%
    17:00 +1°C° 0 mm 2 mps 749 mmHg 84%
    18:00 -1°C° 0 mm 2 mps 749 mmHg 88%
    19:00 -1°C° 0 mm 2 mps 749 mmHg 88%
    20:00 -1°C° 0 mm 2 mps 749 mmHg 89%
    21:00 -1°C° 0 mm 2 mps 748 mmHg 89%
    22:00 -1°C° 0 mm 2 mps 748 mmHg 89%
    23:00 -1°C° 0 mm 2 mps 748 mmHg 89%

    16 Noviembre, Sábado

    Tiempo Temperatura Precipitaciones Viento Presión Humedad
    00:00 -1°C° 0 mm 2 mps 747 mmHg 89%
    01:00 -1°C° 0 mm 2 mps 747 mmHg 88%
    02:00 -1°C° 0 mm 2 mps 746 mmHg 86%
    03:00 +1°C° 0 mm 1 mps 746 mmHg 85%
    04:00 +1°C° 0 mm 1 mps 745 mmHg 84%
    05:00 +1°C° 0 mm 1 mps 745 mmHg 82%
    06:00 +1°C° 0 mm 1 mps 745 mmHg 80%
    07:00 +2°C° 0 mm 1 mps 744 mmHg 78%
    08:00 +2°C° 0 mm 1 mps 744 mmHg 75%
    09:00 +3°C° 0 mm 1 mps 744 mmHg 72%
    10:00 +3°C° 0 mm 1 mps 744 mmHg 71%
    11:00 +4°C° 0 mm 1 mps 743 mmHg 70%
    12:00 +5°C° 0 mm 1 mps 743 mmHg 69%
    13:00 +5°C° 0 mm 1 mps 743 mmHg 72%
    14:00 +4°C° 0 mm 1 mps 743 mmHg 76%
    15:00 +4°C° 0 mm 1 mps 742 mmHg 79%
    16:00 +3°C° 0 mm 1 mps 742 mmHg 81%
    17:00 +3°C° 0 mm 1 mps 742 mmHg 83%
    18:00 +2°C° 0 mm 1 mps 742 mmHg 85%
    19:00 +2°C° 0 mm 1 mps 742 mmHg 85%
    20:00 +2°C° 0 mm 1 mps 743 mmHg 85%
    21:00 +2°C° 0 mm 1 mps 743 mmHg 85%
    22:00 +2°C° 0 mm 1 mps 743 mmHg 85%
    23:00 +2°C° 0 mm 1 mps 743 mmHg 85%

    17 Noviembre, Domingo

    Tiempo Temperatura Precipitaciones Viento Presión Humedad
    00:00 +1°C° 0 mm 0 mps 743 mmHg 85%
    01:00 +2°C° 0 mm 1 mps 743 mmHg 85%
    02:00 +2°C° 0 mm 1 mps 743 mmHg 85%
    03:00 +2°C° 0 mm 1 mps 743 mmHg 85%
    04:00 +2°C° 0 mm 1 mps 744 mmHg 85%
    05:00 +2°C° 0 mm 1 mps 744 mmHg 85%
    06:00 +2°C° 0 mm 1 mps 744 mmHg 85%
    07:00 +2°C° 0 mm 1 mps 745 mmHg 85%
    08:00 +3°C° 0 mm 1 mps 745 mmHg 84%
    09:00 +3°C° 0 mm 1 mps 745 mmHg 84%
    10:00 +3°C° 0 mm 1 mps 745 mmHg 81%
    11:00 +4°C° 0 mm 1 mps 745 mmHg 79%
    12:00 +4°C° 0 mm 0 mps 745 mmHg 76%
    13:00 +4°C° 0 mm 0 mps 745 mmHg 78%
    14:00 +3°C° 0 mm 0 mps 745 mmHg 81%
    15:00 +3°C° 0 mm 0 mps 745 mmHg 83%
    16:00 +3°C° 0 mm 1 mps 745 mmHg 87%
    17:00 +3°C° 0 mm 1 mps 745 mmHg 90%
    18:00 +2°C° 0 mm 1 mps 745 mmHg 93%
    19:00 +2°C° 0 mm 1 mps 745 mmHg 94%
    20:00 +2°C° 0 mm 1 mps 745 mmHg 95%
    21:00 +2°C° 0 mm 1 mps 745 mmHg 96%
    22:00 +2°C° 0 mm 1 mps 745 mmHg 97%
    23:00 +2°C° 0 mm 1 mps 745 mmHg 97%

    18 Noviembre, Lunes

    Tiempo Temperatura Precipitaciones Viento Presión Humedad
    00:00 +2°C° 0 mm 1 mps 744 mmHg 97%
    01:00 +2°C° 0 mm 1 mps 744 mmHg 96%
    02:00 +2°C° 0 mm 1 mps 744 mmHg 96%
    03:00 +2°C° 0 mm 1 mps 744 mmHg 96%
    04:00 +2°C° 0 mm 1 mps 743 mmHg 96%
    05:00 +2°C° 0 mm 1 mps 743 mmHg 95%
    06:00 +2°C° 0 mm 1 mps 743 mmHg 95%
    07:00 +2°C° 0 mm 1 mps 742 mmHg 95%
    08:00 +2°C° 0 mm 1 mps 742 mmHg 95%
    09:00 +2°C° 0 mm 1 mps 742 mmHg 94%
    10:00 +3°C° 0 mm 1 mps 742 mmHg 92%
    11:00 +4°C° 0 mm 1 mps 741 mmHg 90%
    12:00 +4°C° 0 mm 1 mps 741 mmHg 88%
    13:00 +4°C° 0 mm 1 mps 740 mmHg 89%
    14:00 +3°C° 0 mm 2 mps 740 mmHg 91%
    15:00 +3°C° 0 mm 2 mps 740 mmHg 93%
    16:00 +3°C° 0.1 mm 2 mps 739 mmHg 94%
    17:00 +2°C° 0.1 mm 2 mps 739 mmHg 95%
    18:00 +1°C° 0.1 mm 3 mps 739 mmHg 96%
    19:00 +1°C° 0.1 mm 3 mps 738 mmHg 96%
    20:00 +1°C° 0.1 mm 3 mps 738 mmHg 96%
    21:00 +1°C° 0.1 mm 3 mps 738 mmHg 96%
    22:00 +1°C° 0 mm 3 mps 738 mmHg 96%
    23:00 +1°C° 0 mm 3 mps 737 mmHg 97%
    Mostrar más